User: anonymous   Login
Location: Astronight Observatory
(42.6003°N, 71.2981°W)
Time: 05:20:34
(UTC-04:00)
Language:

DELTA 2 R/B (1) - Orbit

View from above orbital plane
View from above orbital plane
View from above satellite
View from above satellite

Ground track
Ground track

The orbit data is extracted from the following two-line orbital elements,

1 27665U 03005C   17083.75328152 +.00000043 +00000-0 +50854-4 0  9999
2 27665 039.5753 180.1840 0007896 074.5211 062.7814 14.28437947738760
Epoch (UTC): 24 March 2017 18:04:43
Eccentricity: 0.0007896
inclination: 39.5753°
perigee height: 791 km
apogee height: 802 km
right ascension of ascending node: 180.1840°
argument of perigee: 74.5211°
revolutions per day: 14.28437947
mean anomaly at epoch: 62.7814°
orbit number at epoch: 73876

The dashed part of the orbit path shows where the satellite is in the earth's shadow,  

DLR